This is the latest recevied weather packets stored in our database for station/object SP8NFE-1. If no packets are shown the sender has not sent any weather packets the latest 10 day(s).
| Time | Temp. | Humidity | Pressure | Rain* | Wind** | Luminosity | Snow |
|---|---|---|---|---|---|---|---|
| 1777835717 | 9.44° C | 81% | 0 hPa | 0 mm | - | - | - |
| 1777835417 | 9.44° C | 81% | 0 hPa | 0 mm | - | - | - |
| 1777835117 | 10° C | 80% | 0 hPa | 0 mm | - | - | - |
| 1777834817 | 10° C | 78% | 0 hPa | 0 mm | - | - | - |
| 1777834517 | 10° C | 75% | 0 hPa | 0 mm | - | - | - |
| 1777834217 | 10.56° C | 74% | 0 hPa | 0 mm | - | - | - |
| 1777833917 | 10.56° C | 74% | 0 hPa | 0 mm | - | - | - |
| 1777833617 | 11.11° C | 69% | 0 hPa | 0 mm | - | - | - |
| 1777833317 | 11.11° C | 68% | 0 hPa | 0 mm | - | - | - |
| 1777833017 | 11.67° C | 66% | 0 hPa | 0 mm | - | - | - |
| 1777832717 | 11.67° C | 65% | 0 hPa | 0 mm | - | - | - |
| 1777832418 | 12.22° C | 63% | 0 hPa | 0 mm | - | - | - |
| 1777832117 | 12.78° C | 61% | 0 hPa | 0 mm | - | - | - |
| 1777831817 | 13.33° C | 59% | 0 hPa | 0 mm | - | - | - |
| 1777831517 | 13.33° C | 58% | 0 hPa | 0 mm | - | - | - |
| 1777831217 | 13.89° C | 59% | 0 hPa | 0 mm | - | - | - |
| 1777830917 | 14.44° C | 57% | 0 hPa | 0 mm | - | - | - |
| 1777830617 | 15° C | 55% | 0 hPa | 0 mm | - | - | - |
| 1777830317 | 15.56° C | 51% | 0 hPa | 0 mm | - | - | - |
| 1777830018 | 16.11° C | 50% | 0 hPa | 0 mm | - | - | - |
| 1777829717 | 16.67° C | 46% | 0 hPa | 0 mm | - | - | - |
| 1777829417 | 17.22° C | 44% | 0 hPa | 0 mm | - | - | - |
| 1777829118 | 17.78° C | 43% | 0 hPa | 0 mm | - | - | - |
| 1777828817 | 18.89° C | 40% | 0 hPa | 0 mm | - | - | - |
| 1777828518 | 20° C | 38% | 0 hPa | 0 mm | - | - | - |
* Rain latest hour (hover to see other rain measurements)
** Current wind speed in m/s (hover to see current wind gust speed)